Year,Month,Day,Hour,Minute,Value (Times are PST for windspeed in km/hr)
2019,04,05,00,00,5.60
2019,04,05,00,01,6.70
2019,04,05,00,02,11.30
2019,04,05,00,03,14.40
2019,04,05,00,04,15.40
2019,04,05,00,05,15.00
2019,04,05,00,06,16.50
2019,04,05,00,07,15.40
2019,04,05,00,09,15.70
2019,04,05,00,10,15.00
2019,04,05,00,11,15.20
2019,04,05,00,12,12.20
2019,04,05,00,13,12.20
2019,04,05,00,14,10.40
2019,04,05,00,15,10.70
2019,04,05,00,16,10.60
2019,04,05,00,17,9.40
2019,04,05,00,18,10.60
2019,04,05,00,19,10.20
2019,04,05,00,20,10.70
2019,04,05,00,21,13.30
2019,04,05,00,22,14.30
2019,04,05,00,23,12.60
2019,04,05,00,24,10.40
2019,04,05,00,25,13.30
2019,04,05,00,26,11.50
2019,04,05,00,27,10.40
2019,04,05,00,28,12.60
2019,04,05,00,29,12.60
2019,04,05,00,30,11.50
2019,04,05,00,32,14.80
2019,04,05,00,33,14.80
2019,04,05,00,34,14.30
2019,04,05,00,35,13.70
2019,04,05,00,36,15.40
2019,04,05,00,37,15.90
2019,04,05,00,38,15.70
2019,04,05,00,39,15.20
2019,04,05,00,40,15.20
2019,04,05,00,41,15.60
2019,04,05,00,42,13.30
2019,04,05,00,43,12.00
2019,04,05,00,44,11.30
2019,04,05,00,45,12.00
2019,04,05,00,46,10.00
2019,04,05,00,47,7.60
2019,04,05,00,48,6.70
2019,04,05,00,49,6.50
2019,04,05,00,50,7.20
2019,04,05,00,51,6.30
2019,04,05,00,52,9.60
2019,04,05,00,53,8.90
2019,04,05,00,54,19.10
2019,04,05,00,55,15.60
2019,04,05,00,56,12.40
2019,04,05,00,57,10.20
2019,04,05,00,58,7.20
2019,04,05,00,59,4.80
2019,04,05,01,00,5.00
2019,04,05,01,01,5.70
2019,04,05,01,02,7.80
2019,04,05,01,03,8.50
2019,04,05,01,04,11.50
2019,04,05,01,05,18.00
2019,04,05,01,06,23.90
2019,04,05,01,07,26.10
2019,04,05,01,08,25.70
2019,04,05,01,09,25.60
2019,04,05,01,10,29.30
2019,04,05,01,11,29.80
2019,04,05,01,12,30.40
2019,04,05,01,13,31.50
2019,04,05,01,14,29.60
2019,04,05,01,15,30.70
2019,04,05,01,16,30.90
2019,04,05,01,17,30.70
2019,04,05,01,18,30.90
2019,04,05,01,19,31.70
2019,04,05,01,20,29.80
2019,04,05,01,21,29.80
2019,04,05,01,22,31.50
2019,04,05,01,23,29.80
2019,04,05,01,24,29.10
2019,04,05,01,25,29.40
2019,04,05,01,26,30.00
2019,04,05,01,27,28.20
2019,04,05,01,28,28.90
2019,04,05,01,29,29.60
2019,04,05,01,30,29.40
2019,04,05,01,31,31.10
2019,04,05,01,32,31.30
2019,04,05,01,33,31.70
2019,04,05,01,34,32.80
2019,04,05,01,35,30.70
2019,04,05,01,36,29.30
2019,04,05,01,37,29.30
2019,04,05,01,38,28.70
2019,04,05,01,39,27.40
2019,04,05,01,40,28.00
2019,04,05,01,41,28.70
2019,04,05,01,42,28.20
2019,04,05,01,43,28.90
2019,04,05,01,44,27.20
2019,04,05,01,45,27.00
2019,04,05,01,46,25.90
2019,04,05,01,47,24.40
2019,04,05,01,48,24.60
2019,04,05,01,49,23.30
2019,04,05,01,50,23.30
2019,04,05,01,51,22.00
2019,04,05,01,52,21.70
2019,04,05,01,53,20.60
2019,04,05,01,54,19.40
2019,04,05,01,55,21.30
2019,04,05,01,56,20.90
2019,04,05,01,57,22.80
2019,04,05,01,58,21.30
2019,04,05,01,59,20.00
2019,04,05,02,00,21.70
2019,04,05,02,01,19.60
2019,04,05,02,02,23.30
2019,04,05,02,03,21.70
2019,04,05,02,04,21.50
2019,04,05,02,05,21.10
2019,04,05,02,06,22.40
2019,04,05,02,07,23.10
2019,04,05,02,08,22.60
2019,04,05,02,09,24.80
2019,04,05,02,10,26.30
2019,04,05,02,11,27.20
2019,04,05,02,12,32.20
2019,04,05,02,13,30.70
2019,04,05,02,14,29.30
2019,04,05,02,15,25.00
2019,04,05,02,16,22.20
2019,04,05,02,17,22.00
2019,04,05,02,18,22.00
2019,04,05,02,19,22.20
2019,04,05,02,20,24.40
2019,04,05,02,21,22.40
2019,04,05,02,22,24.10
2019,04,05,02,23,22.60
2019,04,05,02,24,23.00
2019,04,05,02,25,23.50
2019,04,05,02,26,29.30
2019,04,05,02,27,25.20
2019,04,05,02,28,27.00
2019,04,05,02,29,28.20
2019,04,05,02,30,26.30
2019,04,05,02,31,25.70
2019,04,05,02,32,23.50
2019,04,05,02,33,23.50
2019,04,05,02,34,23.00
2019,04,05,02,35,21.90
2019,04,05,02,36,20.70
2019,04,05,02,37,20.00
2019,04,05,02,38,19.10
2019,04,05,02,39,17.80
2019,04,05,02,40,17.20
2019,04,05,02,41,15.90
2019,04,05,02,42,15.20
2019,04,05,02,43,17.60
2019,04,05,02,44,18.50
2019,04,05,02,45,19.80
2019,04,05,02,46,20.20
2019,04,05,02,47,20.40
2019,04,05,02,49,23.10
2019,04,05,02,50,23.50
2019,04,05,02,52,24.80
2019,04,05,02,53,27.00
2019,04,05,02,54,25.70
2019,04,05,02,56,27.00
2019,04,05,02,57,26.30
2019,04,05,02,58,26.10
2019,04,05,02,59,25.70
2019,04,05,03,01,24.60
2019,04,05,03,02,24.60
2019,04,05,03,03,24.10
2019,04,05,03,04,23.10
2019,04,05,03,06,22.00
2019,04,05,03,07,20.20
2019,04,05,03,08,21.50
2019,04,05,03,09,19.80
2019,04,05,03,11,20.40
2019,04,05,03,12,18.50
2019,04,05,03,13,18.70
2019,04,05,03,14,19.10
2019,04,05,03,16,20.40
2019,04,05,03,17,19.60
2019,04,05,03,18,20.00
2019,04,05,03,19,18.50
2019,04,05,03,21,17.00
2019,04,05,03,22,18.90
2019,04,05,03,23,19.30
2019,04,05,03,24,18.50
2019,04,05,03,26,21.50
2019,04,05,03,27,22.20
2019,04,05,03,28,21.90
2019,04,05,03,29,21.10
2019,04,05,03,31,22.00
2019,04,05,03,32,21.90
2019,04,05,03,33,23.10
2019,04,05,03,34,23.70
2019,04,05,03,36,25.40
2019,04,05,03,37,26.30
2019,04,05,03,38,26.10
2019,04,05,03,39,24.10
2019,04,05,03,41,25.90
2019,04,05,03,42,26.70
2019,04,05,03,43,29.40
2019,04,05,03,44,30.40
2019,04,05,03,46,28.90
2019,04,05,03,47,28.70
2019,04,05,03,48,29.10
2019,04,05,03,49,29.30
2019,04,05,03,51,32.20
2019,04,05,03,52,33.30
2019,04,05,03,53,32.40
2019,04,05,03,54,36.30
2019,04,05,03,56,36.30
2019,04,05,03,57,36.50
2019,04,05,03,58,35.60
2019,04,05,03,59,38.30
2019,04,05,04,01,33.20
2019,04,05,04,02,32.00
2019,04,05,04,03,33.70
2019,04,05,04,04,32.60
2019,04,05,04,06,34.30
2019,04,05,04,07,34.30
2019,04,05,04,08,31.10
2019,04,05,04,09,30.00
2019,04,05,04,11,28.20
2019,04,05,04,12,28.70
2019,04,05,04,13,24.30
2019,04,05,04,14,27.60
2019,04,05,04,15,24.30
2019,04,05,04,16,21.50
2019,04,05,04,17,23.30
2019,04,05,04,18,20.60
2019,04,05,04,19,22.00
2019,04,05,04,20,20.60
2019,04,05,04,21,21.50
2019,04,05,04,22,25.20
2019,04,05,04,23,25.20
2019,04,05,04,24,27.60
2019,04,05,04,25,28.20
2019,04,05,04,26,28.70
2019,04,05,04,27,28.90
2019,04,05,04,28,29.80
2019,04,05,04,29,32.60
2019,04,05,04,30,29.40
2019,04,05,04,31,28.20
2019,04,05,04,32,28.20
2019,04,05,04,33,30.70
2019,04,05,04,34,29.10
2019,04,05,04,35,33.00
2019,04,05,04,36,29.30
2019,04,05,04,37,23.30
2019,04,05,04,38,31.30
2019,04,05,04,39,28.20
2019,04,05,04,40,24.60
2019,04,05,04,41,25.70
2019,04,05,04,42,27.80
2019,04,05,04,43,24.60
2019,04,05,04,44,28.70
2019,04,05,04,45,27.80
2019,04,05,04,46,29.60
2019,04,05,04,47,31.30
2019,04,05,04,48,31.10
2019,04,05,04,49,29.30
2019,04,05,04,50,30.00
2019,04,05,04,51,32.00
2019,04,05,04,52,31.10
2019,04,05,04,53,29.80
2019,04,05,04,54,35.00
2019,04,05,04,55,38.30
2019,04,05,04,56,37.20
2019,04,05,04,57,38.50
2019,04,05,04,58,37.80
2019,04,05,04,59,35.40
2019,04,05,05,00,34.10
2019,04,05,05,01,32.20
2019,04,05,05,02,35.60
2019,04,05,05,03,33.50
2019,04,05,05,04,32.20
2019,04,05,05,05,36.30
2019,04,05,05,06,37.60
2019,04,05,05,07,33.70
2019,04,05,05,08,30.90
2019,04,05,05,09,35.90
2019,04,05,05,10,37.00
2019,04,05,05,11,30.00
2019,04,05,05,12,31.30
2019,04,05,05,13,38.70
2019,04,05,05,14,32.60
2019,04,05,05,15,30.70
2019,04,05,05,16,34.80
2019,04,05,05,17,34.30
2019,04,05,05,18,33.90
2019,04,05,05,19,36.10
2019,04,05,05,20,33.30
2019,04,05,05,21,31.70
2019,04,05,05,22,34.10
2019,04,05,05,23,37.00
2019,04,05,05,24,33.90
2019,04,05,05,25,32.40
2019,04,05,05,26,34.30
2019,04,05,05,27,33.00
2019,04,05,05,28,35.60
2019,04,05,05,29,34.80
2019,04,05,05,30,35.20
2019,04,05,05,31,34.60
2019,04,05,05,32,37.20
2019,04,05,05,33,31.90
2019,04,05,05,34,30.90
2019,04,05,05,35,30.90
2019,04,05,05,36,33.30
2019,04,05,05,37,31.70
2019,04,05,05,38,31.70
2019,04,05,05,39,29.60
2019,04,05,05,40,30.70
2019,04,05,05,41,29.40
2019,04,05,05,42,31.90
2019,04,05,05,43,30.40
2019,04,05,05,44,30.40
2019,04,05,05,45,27.20
2019,04,05,05,46,30.60
2019,04,05,05,47,32.20
2019,04,05,05,48,32.20
2019,04,05,05,49,30.60
2019,04,05,05,50,30.20
2019,04,05,05,51,29.60
2019,04,05,05,52,29.80
2019,04,05,05,53,29.60
2019,04,05,05,54,25.40
2019,04,05,05,55,23.00
2019,04,05,05,56,23.90
2019,04,05,05,57,24.40
2019,04,05,05,58,24.80
2019,04,05,05,59,23.70
2019,04,05,06,00,26.10
2019,04,05,06,01,23.70
2019,04,05,06,02,26.90
2019,04,05,06,03,28.70
2019,04,05,06,04,28.20
2019,04,05,06,05,27.40
2019,04,05,06,06,28.90
2019,04,05,06,07,28.00
2019,04,05,06,08,32.60
2019,04,05,06,09,28.50
2019,04,05,06,10,26.10
2019,04,05,06,11,28.30
2019,04,05,06,12,24.40
2019,04,05,06,13,25.90
2019,04,05,06,14,27.00
2019,04,05,06,15,27.00
2019,04,05,06,16,23.90
2019,04,05,06,17,25.40
2019,04,05,06,18,25.40
2019,04,05,06,19,23.70
2019,04,05,06,20,23.10
2019,04,05,06,21,23.90
2019,04,05,06,22,28.50
2019,04,05,06,23,25.40
2019,04,05,06,24,25.60
2019,04,05,06,25,26.10
2019,04,05,06,26,28.30
2019,04,05,06,27,28.50
2019,04,05,06,28,29.60
2019,04,05,06,29,27.80
2019,04,05,06,30,26.10
2019,04,05,06,32,25.90
2019,04,05,06,33,25.20
2019,04,05,06,34,22.00
2019,04,05,06,35,20.70
2019,04,05,06,36,20.20
2019,04,05,06,37,21.30
2019,04,05,06,38,21.70
2019,04,05,06,39,22.80
2019,04,05,06,40,23.70
2019,04,05,06,41,26.70
2019,04,05,06,42,28.50
2019,04,05,06,43,25.90
2019,04,05,06,44,25.70
2019,04,05,06,45,25.40
2019,04,05,06,46,24.10
2019,04,05,06,47,26.30
2019,04,05,06,48,27.40
2019,04,05,06,49,22.60
2019,04,05,06,50,24.40
2019,04,05,06,51,23.00
2019,04,05,06,52,25.20
2019,04,05,06,53,27.60
2019,04,05,06,54,27.80
2019,04,05,06,55,28.20
2019,04,05,06,56,27.80
2019,04,05,06,57,29.80
2019,04,05,06,58,30.40
2019,04,05,06,59,31.90
2019,04,05,07,00,29.80
2019,04,05,07,01,27.40
2019,04,05,07,02,27.60
2019,04,05,07,03,29.30
2019,04,05,07,04,29.40
2019,04,05,07,05,29.40
2019,04,05,07,06,27.40
2019,04,05,07,07,23.30
2019,04,05,07,08,24.60
2019,04,05,07,09,24.80
2019,04,05,07,10,28.90
2019,04,05,07,11,29.30
2019,04,05,07,12,26.70
2019,04,05,07,13,27.60
2019,04,05,07,14,27.00
2019,04,05,07,15,26.70
2019,04,05,07,16,26.30
2019,04,05,07,17,26.30
2019,04,05,07,18,27.80
2019,04,05,07,19,29.40
2019,04,05,07,20,26.30
2019,04,05,07,21,24.30
2019,04,05,07,22,21.70
2019,04,05,07,23,23.90
2019,04,05,07,24,27.20
2019,04,05,07,25,29.60
2019,04,05,07,26,30.90
2019,04,05,07,27,30.00
2019,04,05,07,28,28.30
2019,04,05,07,29,23.50
2019,04,05,07,30,23.30
2019,04,05,07,31,22.80
2019,04,05,07,32,27.00
2019,04,05,07,33,28.50
2019,04,05,07,34,25.90
2019,04,05,07,35,23.30
2019,04,05,07,36,22.80
2019,04,05,07,37,28.20
2019,04,05,07,38,27.80
2019,04,05,07,39,27.80
2019,04,05,07,40,28.30
2019,04,05,07,41,28.30
2019,04,05,07,42,29.40
2019,04,05,07,43,33.50
2019,04,05,07,44,32.60
2019,04,05,07,45,31.90
2019,04,05,07,46,31.70
2019,04,05,07,47,32.00
2019,04,05,07,49,33.20
2019,04,05,07,51,33.90
2019,04,05,07,53,34.10
2019,04,05,07,54,31.50
2019,04,05,07,56,30.90
2019,04,05,07,57,32.80
2019,04,05,07,58,34.40
2019,04,05,07,59,36.50
2019,04,05,08,01,33.20
2019,04,05,08,02,30.90
2019,04,05,08,03,34.80
2019,04,05,08,04,36.30
2019,04,05,08,06,31.10
2019,04,05,08,07,33.50
2019,04,05,08,08,35.20
2019,04,05,08,09,35.00
2019,04,05,08,11,35.40
2019,04,05,08,12,31.50
2019,04,05,08,13,30.90
2019,04,05,08,14,28.70
2019,04,05,08,16,29.40
2019,04,05,08,17,30.60
2019,04,05,08,18,32.00
2019,04,05,08,19,30.70
2019,04,05,08,21,29.60
2019,04,05,08,22,29.10
2019,04,05,08,23,28.50
2019,04,05,08,24,27.60
2019,04,05,08,26,25.40
2019,04,05,08,27,28.90
2019,04,05,08,28,28.00
2019,04,05,08,29,28.20
2019,04,05,08,31,26.90
2019,04,05,08,32,25.90
2019,04,05,08,33,26.30
2019,04,05,08,34,27.40
2019,04,05,08,36,22.00
2019,04,05,08,37,21.90
2019,04,05,08,38,21.50
2019,04,05,08,39,24.10
2019,04,05,08,41,23.00
2019,04,05,08,42,20.60
2019,04,05,08,43,17.40
2019,04,05,08,44,16.50
2019,04,05,08,46,16.10
2019,04,05,08,47,12.00
2019,04,05,08,48,9.40
2019,04,05,08,49,10.70
2019,04,05,08,51,10.90
2019,04,05,08,52,11.70
2019,04,05,08,53,11.10
2019,04,05,08,54,10.70
2019,04,05,08,56,9.10
2019,04,05,08,57,9.80
2019,04,05,08,58,7.80
2019,04,05,08,59,7.60
2019,04,05,09,01,9.30
2019,04,05,09,02,10.00
2019,04,05,09,03,7.60
2019,04,05,09,04,5.20
2019,04,05,09,06,6.70
2019,04,05,09,07,5.90
2019,04,05,09,08,5.90
2019,04,05,09,09,5.90
2019,04,05,09,11,6.90
2019,04,05,09,12,5.60
2019,04,05,09,13,6.50
2019,04,05,09,14,6.50
2019,04,05,09,16,6.90
2019,04,05,09,17,6.70
2019,04,05,09,18,6.30
2019,04,05,09,19,5.60
2019,04,05,09,21,4.30
2019,04,05,09,22,7.00
2019,04,05,09,23,10.40
2019,04,05,09,24,12.20
2019,04,05,09,25,13.90
2019,04,05,09,26,13.30
2019,04,05,09,27,17.80
2019,04,05,09,28,22.60
2019,04,05,09,29,27.80
2019,04,05,09,30,30.00
2019,04,05,09,31,32.60
2019,04,05,09,32,31.70
2019,04,05,09,33,30.70
2019,04,05,09,34,30.90
2019,04,05,09,35,33.90
2019,04,05,09,36,33.00
2019,04,05,09,37,35.40
2019,04,05,09,38,32.80
2019,04,05,09,39,35.70
2019,04,05,09,40,36.10
2019,04,05,09,41,37.60
2019,04,05,09,42,36.10
2019,04,05,09,43,35.60
2019,04,05,09,44,33.00
2019,04,05,09,45,30.90
2019,04,05,09,46,30.60
2019,04,05,09,47,28.50
2019,04,05,09,48,28.30
2019,04,05,09,49,25.90
2019,04,05,09,50,28.70
2019,04,05,09,51,27.20
2019,04,05,09,52,28.90
2019,04,05,09,53,27.20
2019,04,05,09,54,30.20
2019,04,05,09,55,31.70
2019,04,05,09,56,30.70
2019,04,05,09,57,30.60
2019,04,05,09,58,29.80
2019,04,05,09,59,29.80
2019,04,05,10,00,28.00
2019,04,05,10,01,26.50
2019,04,05,10,02,25.60
2019,04,05,10,03,26.30
2019,04,05,10,04,28.00
2019,04,05,10,05,28.30
2019,04,05,10,06,28.30
2019,04,05,10,07,26.50
2019,04,05,10,08,25.20
2019,04,05,10,09,27.20
2019,04,05,10,10,28.70
2019,04,05,10,11,27.60
2019,04,05,10,12,26.10
2019,04,05,10,13,24.40
2019,04,05,10,14,24.40
2019,04,05,10,15,24.40
2019,04,05,10,16,23.50
2019,04,05,10,17,25.00
2019,04,05,10,18,27.20
2019,04,05,10,19,27.60
2019,04,05,10,20,28.50
2019,04,05,10,21,25.90
2019,04,05,10,22,25.90
2019,04,05,10,23,26.90
2019,04,05,10,24,25.90
2019,04,05,10,25,26.50
2019,04,05,10,26,25.20
2019,04,05,10,27,23.50
2019,04,05,10,28,21.90
2019,04,05,10,29,23.30
2019,04,05,10,30,21.10
2019,04,05,10,31,29.30
2019,04,05,10,32,32.20
2019,04,05,10,33,26.50
2019,04,05,10,34,25.90
2019,04,05,10,35,33.70
2019,04,05,10,36,33.90
2019,04,05,10,37,36.50
2019,04,05,10,38,30.60
2019,04,05,10,39,31.50
2019,04,05,10,40,29.60
2019,04,05,10,41,27.80
2019,04,05,10,42,27.20
2019,04,05,10,43,25.90
2019,04,05,10,44,22.00
2019,04,05,10,45,23.50
2019,04,05,10,46,21.50
2019,04,05,10,47,20.70
2019,04,05,10,48,22.60
2019,04,05,10,49,25.40
2019,04,05,10,50,25.40
2019,04,05,10,51,25.70
2019,04,05,10,52,28.90
2019,04,05,10,53,29.60
2019,04,05,10,54,28.30
2019,04,05,10,55,29.30
2019,04,05,10,56,28.50
2019,04,05,10,57,28.50
2019,04,05,10,58,27.20
2019,04,05,10,59,25.40
2019,04,05,11,00,25.00
2019,04,05,11,01,25.90
2019,04,05,11,02,26.10
2019,04,05,11,03,26.50
2019,04,05,11,04,29.30
2019,04,05,11,05,32.20
2019,04,05,11,06,32.60
2019,04,05,11,07,34.60
2019,04,05,11,08,34.40
2019,04,05,11,09,33.50
2019,04,05,11,10,35.40
2019,04,05,11,11,34.40
2019,04,05,11,12,39.60
2019,04,05,11,13,38.50
2019,04,05,11,14,36.70
2019,04,05,11,15,38.00
2019,04,05,11,16,37.60
2019,04,05,11,17,36.10
2019,04,05,11,18,36.10
2019,04,05,11,19,35.20
2019,04,05,11,20,37.20
2019,04,05,11,21,36.70
2019,04,05,11,22,38.00
2019,04,05,11,23,40.00
2019,04,05,11,24,41.10
2019,04,05,11,25,39.60
2019,04,05,11,26,39.40
2019,04,05,11,27,38.00
2019,04,05,11,28,36.90
2019,04,05,11,29,33.20
2019,04,05,11,30,33.70
2019,04,05,11,31,31.70
2019,04,05,11,32,30.20
2019,04,05,11,33,30.70
2019,04,05,11,34,32.80
2019,04,05,11,35,36.90
2019,04,05,11,36,39.60
2019,04,05,11,37,40.00
2019,04,05,11,38,40.00
2019,04,05,11,39,45.20
2019,04,05,11,40,36.30
2019,04,05,11,41,38.70
2019,04,05,11,42,41.10
2019,04,05,11,43,41.90
2019,04,05,11,44,40.20
2019,04,05,11,45,40.40
2019,04,05,11,46,38.20
2019,04,05,11,47,38.20
2019,04,05,11,48,38.90
2019,04,05,11,49,38.90
2019,04,05,11,50,40.20
2019,04,05,11,51,39.10
2019,04,05,11,52,37.40
2019,04,05,11,53,37.20
2019,04,05,11,54,36.90
2019,04,05,11,55,38.30
2019,04,05,11,56,37.80
2019,04,05,11,57,34.30
2019,04,05,11,58,36.90
2019,04,05,11,59,33.30
2019,04,05,12,00,34.40
2019,04,05,12,01,30.70
2019,04,05,12,02,28.20
2019,04,05,12,03,28.20
2019,04,05,12,04,30.60
2019,04,05,12,05,30.40
2019,04,05,12,06,31.50
2019,04,05,12,07,35.40
2019,04,05,12,08,42.60
2019,04,05,12,09,43.70
2019,04,05,12,10,43.30
2019,04,05,12,11,44.80
2019,04,05,12,12,41.90
2019,04,05,12,13,43.70
2019,04,05,12,14,40.40
2019,04,05,12,15,39.30
2019,04,05,12,16,38.20
2019,04,05,12,17,40.40
2019,04,05,12,19,38.70
2019,04,05,12,20,39.40
2019,04,05,12,22,39.60
2019,04,05,12,23,38.00
2019,04,05,12,24,38.30
2019,04,05,12,26,43.30
2019,04,05,12,27,44.40
2019,04,05,12,28,45.20
2019,04,05,12,29,44.10
2019,04,05,12,30,39.40
2019,04,05,12,32,36.90
2019,04,05,12,33,34.30
2019,04,05,12,34,35.60
2019,04,05,12,36,40.40
2019,04,05,12,37,38.30
2019,04,05,12,38,40.40
2019,04,05,12,39,43.50
2019,04,05,12,41,45.90
2019,04,05,12,42,45.90
2019,04,05,12,43,45.70
2019,04,05,12,44,47.00
2019,04,05,12,46,46.10
2019,04,05,12,47,46.10
2019,04,05,12,48,45.00
2019,04,05,12,49,41.30
2019,04,05,12,51,44.80
2019,04,05,12,52,49.60
2019,04,05,12,53,46.50
2019,04,05,12,54,48.90
2019,04,05,12,56,50.60
2019,04,05,12,57,49.40
2019,04,05,12,58,49.10
2019,04,05,12,59,52.00
2019,04,05,13,01,55.20
2019,04,05,13,02,49.80
2019,04,05,13,03,50.90
2019,04,05,13,04,49.40
2019,04,05,13,06,49.80
2019,04,05,13,07,47.00
2019,04,05,13,08,53.00
2019,04,05,13,09,53.20
2019,04,05,13,11,46.90
2019,04,05,13,12,48.30
2019,04,05,13,13,47.40
2019,04,05,13,14,48.20
2019,04,05,13,16,37.80
2019,04,05,13,17,41.50
2019,04,05,13,18,41.30
2019,04,05,13,19,40.60
2019,04,05,13,21,41.10
2019,04,05,13,22,39.10
2019,04,05,13,23,38.30
2019,04,05,13,24,39.80
2019,04,05,13,26,40.00
2019,04,05,13,27,42.00
2019,04,05,13,28,41.10
2019,04,05,13,29,40.90
2019,04,05,13,31,33.50
2019,04,05,13,32,37.40
2019,04,05,13,33,37.00
2019,04,05,13,34,40.70
2019,04,05,13,36,38.20
2019,04,05,13,37,38.50
2019,04,05,13,38,35.70
2019,04,05,13,39,34.60
2019,04,05,13,41,39.10
2019,04,05,13,42,37.60
2019,04,05,13,43,40.00
2019,04,05,13,44,38.20
2019,04,05,13,45,42.00
2019,04,05,13,46,38.70
2019,04,05,13,47,43.30
2019,04,05,13,48,40.90
2019,04,05,13,49,49.60
2019,04,05,13,50,48.00
2019,04,05,13,51,42.20
2019,04,05,13,52,45.40
2019,04,05,13,53,45.00
2019,04,05,13,54,42.20
2019,04,05,13,55,41.10
2019,04,05,13,56,37.00
2019,04,05,13,57,45.60
2019,04,05,13,58,36.50
2019,04,05,13,59,40.60
2019,04,05,14,00,41.30
2019,04,05,14,01,44.10
2019,04,05,14,02,41.30
2019,04,05,14,03,40.90
2019,04,05,14,04,38.00
2019,04,05,14,05,38.30
2019,04,05,14,06,37.60
2019,04,05,14,07,37.00
2019,04,05,14,08,44.60
2019,04,05,14,09,39.80
2019,04,05,14,10,44.10
2019,04,05,14,11,38.20
2019,04,05,14,12,35.90
2019,04,05,14,13,33.00
2019,04,05,14,14,33.90
2019,04,05,14,15,29.30
2019,04,05,14,16,28.70
2019,04,05,14,17,28.50
2019,04,05,14,18,31.30
2019,04,05,14,19,31.30
2019,04,05,14,20,30.60
2019,04,05,14,21,26.50
2019,04,05,14,22,29.30
2019,04,05,14,23,29.30
2019,04,05,14,24,24.10
2019,04,05,14,25,21.70
2019,04,05,14,26,21.90
2019,04,05,14,27,20.00
2019,04,05,14,28,17.20
2019,04,05,14,29,14.60
2019,04,05,14,30,15.00
2019,04,05,14,31,14.40
2019,04,05,14,32,12.40
2019,04,05,14,33,10.40
2019,04,05,14,34,9.30
2019,04,05,14,35,8.30
2019,04,05,14,36,7.00
2019,04,05,14,37,6.10
2019,04,05,14,38,5.90
2019,04,05,14,39,7.00
2019,04,05,14,40,6.30
2019,04,05,14,41,8.70
2019,04,05,14,42,8.10
2019,04,05,14,43,8.30
2019,04,05,14,44,9.30
2019,04,05,14,45,9.10
2019,04,05,14,46,8.30
2019,04,05,14,47,10.20
2019,04,05,14,48,10.60
2019,04,05,14,49,8.30
2019,04,05,14,50,8.90
2019,04,05,14,51,6.30
2019,04,05,14,52,6.90
2019,04,05,14,53,5.90
2019,04,05,14,54,5.20
2019,04,05,14,55,5.90
2019,04,05,14,56,5.20
2019,04,05,14,57,3.00
2019,04,05,14,58,3.50
2019,04,05,14,59,2.80
2019,04,05,15,00,4.10
2019,04,05,15,01,8.00
2019,04,05,15,02,6.90
2019,04,05,15,03,16.10
2019,04,05,15,04,14.40
2019,04,05,15,05,18.10
2019,04,05,15,06,10.70
2019,04,05,15,07,16.90
2019,04,05,15,08,23.00
2019,04,05,15,09,13.90
2019,04,05,15,10,10.90
2019,04,05,15,11,7.40
2019,04,05,15,12,9.40
2019,04,05,15,13,6.50
2019,04,05,15,14,4.40
2019,04,05,15,15,9.10
2019,04,05,15,16,10.70
2019,04,05,15,17,11.30
2019,04,05,15,18,13.10
2019,04,05,15,19,12.40
2019,04,05,15,20,8.70
2019,04,05,15,21,13.30
2019,04,05,15,22,14.40
2019,04,05,15,23,14.30
2019,04,05,15,24,13.10
2019,04,05,15,25,6.10
2019,04,05,15,26,18.70
2019,04,05,15,27,17.60
2019,04,05,15,28,20.90
2019,04,05,15,29,11.30
2019,04,05,15,30,13.70
2019,04,05,15,31,9.30
2019,04,05,15,32,15.60
2019,04,05,15,33,10.40
2019,04,05,15,34,9.60
2019,04,05,15,35,10.40
2019,04,05,15,36,7.40
2019,04,05,15,37,7.60
2019,04,05,15,38,5.40
2019,04,05,15,39,12.00
2019,04,05,15,40,15.20
2019,04,05,15,41,10.00
2019,04,05,15,42,16.30
2019,04,05,15,43,16.70
2019,04,05,15,44,20.70
2019,04,05,15,45,18.00
2019,04,05,15,46,16.70
2019,04,05,15,47,13.00
2019,04,05,15,48,11.90
2019,04,05,15,49,10.70
2019,04,05,15,50,7.40
2019,04,05,15,51,16.70
2019,04,05,15,52,13.90
2019,04,05,15,53,13.30
2019,04,05,15,54,13.00
2019,04,05,15,55,13.10
2019,04,05,15,56,15.40
2019,04,05,15,57,21.30
2019,04,05,15,58,10.00
2019,04,05,15,59,9.40
2019,04,05,16,00,13.90
2019,04,05,16,01,10.60
2019,04,05,16,02,11.90
2019,04,05,16,03,9.80
2019,04,05,16,04,9.80
2019,04,05,16,05,16.50
2019,04,05,16,06,15.00
2019,04,05,16,07,20.90
2019,04,05,16,08,9.30
2019,04,05,16,09,19.40
2019,04,05,16,10,30.00
2019,04,05,16,11,28.20
2019,04,05,16,12,22.00
2019,04,05,16,13,23.30
2019,04,05,16,14,19.80
2019,04,05,16,15,16.50
2019,04,05,16,16,14.80
2019,04,05,16,17,10.70
2019,04,05,16,18,15.90
2019,04,05,16,19,23.90
2019,04,05,16,20,14.80
2019,04,05,16,21,11.10
2019,04,05,16,22,14.10
2019,04,05,16,23,20.00
2019,04,05,16,24,24.30
2019,04,05,16,25,22.00
2019,04,05,16,26,22.80
2019,04,05,16,27,20.00
2019,04,05,16,28,25.40
2019,04,05,16,29,16.50
2019,04,05,16,31,19.60
2019,04,05,16,33,15.60
2019,04,05,16,34,19.80
2019,04,05,16,36,13.00
2019,04,05,16,37,14.10
2019,04,05,16,38,13.10
2019,04,05,16,39,16.10
2019,04,05,16,41,20.90
2019,04,05,16,42,13.70
2019,04,05,16,43,11.50
2019,04,05,16,44,13.90
2019,04,05,16,46,8.00
2019,04,05,16,47,13.10
2019,04,05,16,48,22.00
2019,04,05,16,49,11.70
2019,04,05,16,51,14.40
2019,04,05,16,52,12.40
2019,04,05,16,53,10.90
2019,04,05,16,54,21.10
2019,04,05,16,56,14.30
2019,04,05,16,57,11.90
2019,04,05,16,58,9.30
2019,04,05,16,59,16.10
2019,04,05,17,01,11.30
2019,04,05,17,02,10.90
2019,04,05,17,03,15.70
2019,04,05,17,04,17.40
2019,04,05,17,06,8.00
2019,04,05,17,07,10.60
2019,04,05,17,08,12.60
2019,04,05,17,09,6.90
2019,04,05,17,11,15.60
2019,04,05,17,12,7.20
2019,04,05,17,13,18.00
2019,04,05,17,14,19.10
2019,04,05,17,16,16.30
2019,04,05,17,17,13.90
2019,04,05,17,18,16.70
2019,04,05,17,19,13.10
2019,04,05,17,21,11.70
2019,04,05,17,22,16.10
2019,04,05,17,23,19.10
2019,04,05,17,24,16.30
2019,04,05,17,26,6.70
2019,04,05,17,27,14.30
2019,04,05,17,28,6.70
2019,04,05,17,29,13.30
2019,04,05,17,31,7.20
2019,04,05,17,32,5.20
2019,04,05,17,33,12.80
2019,04,05,17,34,13.30
2019,04,05,17,36,13.50
2019,04,05,17,37,10.00
2019,04,05,17,38,13.00
2019,04,05,17,39,8.00
2019,04,05,17,41,5.40
2019,04,05,17,42,15.40
2019,04,05,17,43,10.40
2019,04,05,17,44,7.80
2019,04,05,17,46,12.20
2019,04,05,17,47,10.20
2019,04,05,17,48,10.00
2019,04,05,17,49,9.40
2019,04,05,17,51,10.40
2019,04,05,17,52,9.30
2019,04,05,17,53,20.20
2019,04,05,17,54,15.00
2019,04,05,17,55,12.60
2019,04,05,17,56,11.30
2019,04,05,17,57,16.70
2019,04,05,17,58,17.80
2019,04,05,17,59,10.00
2019,04,05,18,00,14.60
2019,04,05,18,01,16.70
2019,04,05,18,02,16.50
2019,04,05,18,03,12.40
2019,04,05,18,04,10.20
2019,04,05,18,06,11.90
2019,04,05,18,07,14.40
2019,04,05,18,08,15.70
2019,04,05,18,09,12.40
2019,04,05,18,10,14.10
2019,04,05,18,11,11.50
2019,04,05,18,12,10.20
2019,04,05,18,13,6.10
2019,04,05,18,14,7.20
2019,04,05,18,15,10.60
2019,04,05,18,16,11.30
2019,04,05,18,17,12.60
2019,04,05,18,18,14.10
2019,04,05,18,19,14.40
2019,04,05,18,20,16.10
2019,04,05,18,21,8.50
2019,04,05,18,22,8.70
2019,04,05,18,23,8.10
2019,04,05,18,24,8.90
2019,04,05,18,25,13.90
2019,04,05,18,26,11.50
2019,04,05,18,27,7.60
2019,04,05,18,28,10.00
2019,04,05,18,29,12.80
2019,04,05,18,30,7.80
2019,04,05,18,32,5.40
2019,04,05,18,33,6.90
2019,04,05,18,34,10.00
2019,04,05,18,35,6.50
2019,04,05,18,36,7.80
2019,04,05,18,37,5.00
2019,04,05,18,38,6.50
2019,04,05,18,39,5.70
2019,04,05,18,40,6.10
2019,04,05,18,41,5.20
2019,04,05,18,42,9.80
2019,04,05,18,43,10.90
2019,04,05,18,44,7.60